User: anonymous   Login
Location: Plum
(40.5000°N, 79.7500°W)
Time: 02:24:44
(UTC-04:00)
Language:

MOZ.5/SAFIR/RUBIN 5/SL-8 - Orbit

View from above orbital plane
View from above orbital plane
View from above satellite
View from above satellite

Ground track
Ground track

The orbit data is extracted from the following two-line orbital elements,

1 28898U 05043G   17080.33789274 +.00000009 +00000-0 +11129-4 0  9993
2 28898 097.9122 233.9727 0021174 103.5581 256.7981 14.60168699607010
Epoch (UTC): 21 March 2017 08:06:33
Eccentricity: 0.0021174
inclination: 97.9122°
perigee height: 677 km
apogee height: 707 km
right ascension of ascending node: 233.9727°
argument of perigee: 103.5581°
revolutions per day: 14.60168699
mean anomaly at epoch: 256.7981°
orbit number at epoch: 60701

The dashed part of the orbit path shows where the satellite is in the earth's shadow,  

DLR